This is the latest recevied weather packets stored in our database for station/object K5BOU. If no packets are shown the sender has not sent any weather packets the latest 10 day(s).
| Time | Temp. | Humidity | Pressure | Rain* | Wind** | Luminosity | Snow |
|---|---|---|---|---|---|---|---|
| 1788479643 | 27.22° C | 99% | 1010.5 hPa | 0 mm | - | 48 W/m² | - |
| 1788479342 | 27.22° C | 99% | 1010.4 hPa | 0 mm | - | 49 W/m² | - |
| 1788479038 | 27.22° C | 99% | 1010.5 hPa | 0 mm | - | 55 W/m² | - |
| 1788478734 | 27.22° C | 99% | 1010.6 hPa | 0 mm | - | 60 W/m² | - |
| 1788478430 | 26.67° C | 99% | 1010.4 hPa | 0 mm | - | 64 W/m² | - |
| 1788478129 | 26.67° C | 99% | 1010.3 hPa | 0 mm | - | 66 W/m² | - |
| 1788477825 | 26.67° C | 99% | 1010.4 hPa | 0 mm | - | 67 W/m² | - |
| 1788477524 | 26.67° C | 99% | 1010.4 hPa | 0 mm | - | 69 W/m² | - |
| 1788477220 | 26.67° C | 99% | 1010.5 hPa | 0 mm | - | 71 W/m² | - |
| 1788476915 | 26.67° C | 99% | 1010.6 hPa | 0 mm | - | 72 W/m² | - |
| 1788476610 | 26.67° C | 99% | 1010.6 hPa | 0 mm | - | 75 W/m² | - |
| 1788476307 | 26.67° C | 99% | 1010.6 hPa | 0 mm | - | 78 W/m² | - |
| 1788476002 | 26.11° C | 99% | 1010.7 hPa | 0 mm | - | 79 W/m² | - |
| 1788475699 | 26.11° C | 99% | 1010.7 hPa | 0 mm | - | 81 W/m² | - |
| 1788475394 | 26.11° C | 99% | 1010.9 hPa | 0 mm | - | 81 W/m² | - |
| 1788475090 | 26.11° C | 99% | 1010.7 hPa | 0 mm | - | 80 W/m² | - |
| 1788474789 | 26.11° C | 99% | 1010.7 hPa | 0 mm | - | 82 W/m² | - |
| 1788474483 | 26.11° C | 99% | 1010.6 hPa | 0 mm | - | 84 W/m² | - |
| 1788474182 | 26.11° C | 99% | 1010.6 hPa | 0 mm | - | 86 W/m² | - |
| 1788473877 | 26.11° C | 99% | 1010.8 hPa | 0 mm | - | 87 W/m² | - |
| 1788473576 | 25.56° C | 99% | 1010.4 hPa | 0 mm | - | 88 W/m² | - |
| 1788473275 | 25.56° C | 99% | 1010.6 hPa | 0 mm | - | 84 W/m² | - |
| 1788472969 | 25.56° C | 99% | 1010.7 hPa | 0 mm | - | 81 W/m² | - |
| 1788472667 | 25.56° C | 99% | 1010.8 hPa | 0 mm | - | 78 W/m² | - |
| 1788472364 | 25.56° C | 99% | 1010.8 hPa | 0 mm | - | 70 W/m² | - |
* Rain latest hour (hover to see other rain measurements)
** Current wind speed in m/s (hover to see current wind gust speed)